Wind_Speed
27 23 21 20 19 20 18 18 20 19 19 19 20 20 20 19 19 20 11 13 15 14 14 14 15 15 15 17 18 18 20 25 23 23 25 24 22 23 24 23 24 28 30 28 27
27 27 25 22 23 22 22 22 20 18 19 21 22 22 22 21 22 18 13 21 20 18 17 17 17 18 18 19 21 19 24 21 22 23 24 23 23 23 25 24 25 28 29 27 25
26 26 26 25 25 23 23 22 23 21 22 22 23 24 24 24 22 13 23 20 20 18 16 15 15 15 17 18 19 22 25 21 23 24 24 25 25 25 27 28 28 28 26 25 24
28 28 28 28 26 26 26 24 25 25 25 25 24 24 24 21 18 25 19 18 17 15 16 17 17 17 17 19 19 22 23 20 24 24 26 26 26 29 28 26 24 24 26 29 30
29 31 31 33 31 28 27 26 27 27 25 26 26 27 24 22 22 19 20 15 14 20 20 20 19 18 17 17 18 23 24 24 25 26 25 24 24 24 25 25 26 28 30 32 35
28 29 29 29 29 29 29 30 27 28 27 26 27 26 25 24 19 21 15 12 20 22 19 15 15 17 19 19 20 25 27 26 27 27 30 31 29 33 30 30 30 32 31 33 36
30 30 29 29 29 28 28 28 25 24 25 24 25 24 23 22 21 16 11 18 22 21 17 14 14 17 21 21 22 23 28 26 28 31 33 35 39 37 31 29 25 21 23 27 27
31 31 32 30 28 26 25 24 23 23 23 23 23 22 21 18 13 11 20 26 26 19 17 15 17 17 20 21 24 25 26 27 18 19 20 21 30 24 19 20 18 19 22 26 30
31 31 30 29 28 25 22 21 22 21 21 21 20 20 15 9 15 21 29 25 21 17 14 14 14 13 13 12 13 9 14 18 20 12 14 16 20 18 21 23 24 28 29 25 27
30 29 28 27 25 24 22 20 21 20 19 16 15 10 15 20 28 27 23 23 17 12 13 11 11 11 8 8 6 10 14 18 19 13 17 21 26 24 25 27 26 26 26 28 26
30 28 25 24 22 21 19 19 17 17 18 11 15 21 27 26 21 21 22 18 10 9 12 13 12 11 10 11 13 16 19 22 20 20 21 26 28 23 23 26 24 26 27 19 16
27 25 23 20 19 17 16 17 17 16 17 15 14 18 14 13 15 12 6 9 10 12 13 15 18 9 11 15 16 18 20 23 19 14 18 21 30 31 27 25 24 19 14 18 23
25 23 21 18 17 16 15 14 12 13 19 11 6 7 7 9 6 6 11 11 11 9 9 16 14 19 17 16 18 17 20 22 20 19 21 26 25 12 7 7 6 8 13 21 31
22 20 19 18 16 16 13 11 11 10 10 4 2 2 6 6 0 10 7 13 14 8 10 13 12 12 14 15 15 20 17 15 16 19 7 9 7 10 9 8 8 11 17 28 32
21 19 18 18 16 16 11 9 7 6 4 3 1 1 5 6 10 11 14 11 10 13 15 9 13 14 15 18 17 14 16 18 21 18 17 13 9 5 5 7 9 15 22 31 30
18 19 18 17 16 15 11 8 5 1 6 2 2 5 8 13 13 12 12 11 11 10 14 13 17 17 13 14 14 15 17 19 15 7 2 4 7 3 4 4 9 17 29 30 27
18 18 17 16 16 15 11 4 2 5 4 2 5 10 15 14 11 7 9 10 8 6 6 12 13 13 12 10 8 7 11 4 3 0 4 4 6 6 6 8 12 25 28 25 27
19 17 17 16 15 14 11 4 6 4 5 10 13 16 14 7 6 8 14 10 10 9 10 5 5 5 4 7 6 9 3 2 3 2 4 7 6 3 4 7 21 28 27 25 28
20 15 17 16 14 13 7 5 4 4 5 7 13 5 1 5 10 10 7 12 9 7 5 6 5 8 9 10 8 2 2 4 4 6 4 4 6 7 3 13 23 24 21 23 24
20 16 15 16 14 11 7 6 7 7 6 7 7 4 4 9 11 6 9 8 8 8 10 7 10 9 8 8 8 10 6 2 3 2 4 5 5 2 3 15 25 22 18 23 24
21 18 14 15 13 10 11 8 10 11 8 7 6 7 10 11 7 9 5 8 6 12 15 14 8 6 8 4 4 3 4 4 4 4 3 3 2 3 7 21 25 21 22 25 26
24 18 14 14 14 12 12 10 8 9 7 8 9 5 5 5 9 6 6 7 13 15 13 9 9 9 8 8 8 9 11 9 4 2 5 3 5 4 14 23 23 20 21 23 26
25 21 19 15 15 17 14 12 10 9 8 5 5 7 6 4 4 5 8 10 13 11 10 14 6 8 3 4 12 11 15 17 13 12 9 3 3 10 19 26 22 18 19 20 20
25 20 19 19 20 16 13 10 7 6 7 9 5 6 6 7 8 7 14 8 19 19 16 13 12 14 8 5 6 6 7 8 11 6 5 15 21 17 23 19 18 15 18 17 17
24 23 19 11 20 16 15 8 8 5 6 5 6 7 8 8 11 10 11 19 21 18 14 8 11 14 17 18 19 21 18 18 19 19 12 15 20 23 17 14 13 12 15 14 13
27 26 22 16 15 13 13 12 9 8 7 6 9 9 10 12 12 17 17 20 15 13 10 11 10 12 19 12 11 14 16 19 23 25 28 27 21 6 7 9 8 11 12 12 12
32 28 21 16 15 15 13 10 6 8 7 9 8 9 11 8 11 15 19 21 19 19 18 16 9 6 5 4 8 13 5 12 21 23 19 14 4 4 5 5 6 10 9 11 12
Wind_Direction
316 310 294 298 303 311 308 314 318 319 320 318 317 320 322 328 331 327 328 335 323 311 299 291 288 285 284 279 272 265 258 262 265 269 266 268 261 256 257 259 266 273 277 274 271
311 315 313 303 300 302 304 304 309 306 309 312 312 313 315 320 329 328 315 321 316 308 301 296 288 283 277 269 266 262 260 266 264 265 264 266 264 261 260 264 271 278 277 274 272
305 309 308 305 305 301 301 297 302 296 302 305 311 313 313 317 324 316 319 314 313 307 303 300 295 290 287 279 272 264 265 273 268 264 265 265 267 266 266 268 273 275 270 270 270
306 304 301 298 295 299 296 291 296 292 299 299 305 308 310 313 319 316 312 312 306 306 308 302 297 291 285 276 271 270 275 272 271 272 271 271 270 271 269 272 271 271 274 274 274
302 302 302 302 303 300 295 292 294 293 296 296 299 306 308 311 314 311 306 300 302 309 307 298 291 285 276 271 273 272 277 276 280 278 273 267 268 274 269 275 276 277 277 275 274
300 300 300 299 299 298 297 294 295 296 296 299 301 306 308 314 311 307 295 293 309 312 309 295 286 279 276 275 271 275 278 277 273 271 275 271 270 271 273 280 277 274 272 271 271
303 301 299 297 297 296 295 295 295 298 297 299 297 300 304 306 303 295 278 302 317 312 305 291 281 277 280 284 277 278 279 275 272 277 274 275 275 277 277 275 270 264 263 265 271
298 297 296 294 292 291 292 293 293 290 293 292 296 298 305 303 293 278 295 299 302 302 294 295 290 280 277 280 278 281 281 286 298 293 278 273 270 282 281 276 269 267 273 277 280
294 293 291 291 291 290 291 292 288 288 286 289 291 298 297 274 283 288 297 300 294 291 290 293 287 287 289 288 292 286 280 291 302 299 277 269 280 285 290 290 281 283 284 283 280
293 291 289 289 288 288 287 283 283 286 284 287 288 278 282 285 291 295 294 304 296 286 295 289 280 281 292 300 301 302 295 298 295 287 277 283 284 288 289 286 281 277 282 285 283
297 292 289 288 288 287 287 284 285 281 277 274 272 278 288 297 303 301 294 294 281 284 295 284 273 285 290 289 304 302 293 291 303 292 284 281 288 294 283 279 273 279 283 284 292
303 297 292 292 289 288 289 287 286 284 289 284 283 285 297 303 305 316 296 292 282 287 284 283 288 272 288 296 299 295 291 294 300 295 294 299 292 293 281 270 263 266 277 304 311
308 302 298 298 296 294 293 295 300 305 298 301 291 314 326 324 338 338 333 323 307 303 279 273 287 293 292 292 296 293 287 292 291 296 299 306 298 277 279 259 252 260 297 316 320
307 304 301 301 298 296 295 296 303 307 300 283 259 317 331 344 132 351 348 4 330 292 294 284 277 278 279 280 286 290 292 290 293 304 312 293 287 273 267 255 249 270 319 322 314
301 299 297 296 297 295 295 292 294 319 345 200 221 125 19 354 310 311 310 298 323 294 284 280 279 280 277 285 288 284 288 290 292 298 299 290 235 243 248 253 266 310 318 315 317
293 291 290 290 292 290 292 283 282 277 257 232 242 314 302 324 311 293 299 311 298 289 279 280 264 273 279 290 284 284 297 297 285 286 283 241 224 263 254 274 290 310 319 323 324
286 284 281 282 285 284 291 266 225 211 314 267 279 307 313 324 319 319 327 327 309 307 277 287 272 264 276 293 291 284 316 328 355 219 239 222 243 274 271 292 313 324 328 330 330
281 280 275 274 273 278 285 257 206 200 261 295 302 298 305 312 315 315 308 310 307 295 299 295 292 254 245 287 277 297 320 185 269 319 294 252 243 276 281 320 334 332 336 335 328
275 275 275 269 265 269 265 226 206 206 257 289 307 312 241 271 315 312 283 285 288 283 284 285 275 278 271 280 281 264 305 259 278 272 295 255 273 291 310 341 335 334 336 327 332
269 271 266 263 259 258 230 232 221 229 257 292 290 268 274 291 299 295 277 274 285 292 318 283 283 271 268 271 265 241 255 285 239 296 280 285 279 252 328 337 335 340 334 337 339
261 266 263 253 248 248 231 232 228 244 252 266 255 267 293 300 283 292 264 291 312 330 323 305 264 275 269 249 253 213 220 218 264 235 196 295 266 217 319 339 342 340 342 342 342
257 256 252 245 236 242 245 230 235 244 259 257 270 250 253 286 290 282 272 293 305 317 320 310 280 269 265 261 254 235 247 230 243 230 234 245 283 271 326 341 337 341 346 344 344
253 250 244 239 239 246 236 235 235 252 252 245 258 251 244 296 297 269 289 295 310 316 313 305 261 297 285 261 238 243 245 258 247 269 243 173 274 322 333 334 327 342 343 348 348
249 250 248 237 239 231 240 217 228 218 238 246 245 251 237 272 280 276 298 296 310 311 302 297 257 247 244 257 198 211 241 264 239 239 258 253 286 310 322 326 321 339 343 355 358
239 243 234 233 228 231 225 222 207 222 243 233 246 244 271 287 287 293 304 303 312 308 291 279 275 279 279 273 265 258 248 248 255 262 266 287 295 307 310 314 321 338 351 4 6
233 231 238 233 230 215 220 233 232 206 225 235 247 256 266 275 287 290 300 306 310 299 278 282 277 293 297 293 268 276 258 249 257 263 265 279 304 284 302 306 329 346 358 9 25
220 234 233 239 231 225 225 226 219 209 233 246 253 283 278 291 307 303 293 288 278 268 277 276 275 292 272 260 281 283 289 259 255 263 273 275 289 288 307 315 341 353 14 28 39
Height
3124 3121 3119 3117 3115 3113 3111 3108 3106 3103 3100 3097 3095 3093 3091 3089 3087 3084 3082 3081 3078 3076 3075 3073 3073 3072 3071 3071 3070 3068 3067 3064 3064 3064 3063 3062 3062 3063 3061 3062 3063 3061 3060 3061 3060
3120 3117 3114 3112 3110 3109 3106 3104 3102 3099 3097 3094 3092 3089 3087 3085 3084 3081 3079 3077 3075 3073 3071 3069 3068 3067 3067 3067 3065 3064 3061 3059 3059 3059 3058 3059 3058 3058 3059 3058 3057 3056 3056 3055 3055
3116 3113 3110 3108 3106 3104 3102 3100 3098 3095 3092 3090 3088 3085 3083 3082 3080 3077 3075 3073 3071 3069 3067 3065 3063 3063 3062 3062 3061 3058 3057 3056 3055 3055 3054 3053 3053 3053 3053 3053 3053 3051 3050 3050 3050
3112 3110 3107 3104 3102 3100 3098 3096 3094 3091 3088 3086 3084 3081 3079 3079 3079 3073 3071 3069 3067 3065 3064 3061 3060 3059 3058 3057 3055 3053 3053 3052 3051 3051 3050 3048 3048 3046 3047 3049 3047 3046 3045 3044 3043
3107 3104 3102 3099 3096 3094 3093 3091 3089 3085 3083 3081 3079 3076 3074 3074 3072 3069 3067 3065 3063 3061 3059 3057 3056 3055 3053 3051 3051 3048 3049 3048 3046 3045 3044 3043 3042 3042 3041 3042 3041 3041 3039 3037 3034
3101 3098 3095 3093 3090 3087 3085 3083 3081 3079 3077 3074 3072 3070 3068 3068 3067 3065 3062 3061 3059 3056 3054 3052 3052 3050 3049 3047 3046 3044 3043 3043 3042 3041 3038 3037 3036 3033 3038 3036 3034 3033 3032 3029 3027
3095 3093 3090 3086 3084 3081 3079 3077 3075 3073 3071 3069 3067 3065 3064 3064 3062 3060 3058 3056 3054 3051 3050 3048 3047 3047 3045 3044 3040 3039 3037 3036 3036 3036 3032 3031 3027 3027 3028 3028 3026 3025 3024 3022 3022
3090 3087 3085 3081 3078 3076 3073 3072 3070 3067 3066 3063 3062 3061 3059 3058 3056 3055 3054 3051 3049 3047 3045 3045 3043 3041 3040 3039 3037 3035 3033 3029 3029 3029 3027 3026 3020 3024 3023 3021 3020 3019 3018 3017 3016
3083 3081 3078 3075 3072 3070 3067 3065 3063 3062 3061 3059 3058 3056 3055 3053 3053 3051 3048 3045 3043 3042 3042 3041 3040 3038 3037 3035 3033 3031 3029 3027 3025 3024 3023 3023 3018 3020 3018 3016 3014 3013 3011 3010 3008
3076 3074 3072 3069 3067 3065 3063 3060 3058 3058 3056 3056 3053 3054 3050 3049 3046 3044 3042 3040 3039 3038 3037 3036 3036 3035 3034 3032 3031 3028 3026 3025 3023 3023 3019 3017 3014 3016 3013 3010 3007 3006 3005 3003 3002
3072 3069 3066 3064 3061 3059 3058 3057 3057 3054 3052 3052 3050 3047 3045 3044 3041 3039 3038 3036 3035 3035 3033 3032 3032 3031 3031 3030 3028 3026 3024 3022 3020 3019 3014 3012 3008 3009 3008 3004 3002 3001 2998 2997 2997
3067 3065 3062 3059 3057 3055 3053 3051 3049 3049 3047 3046 3045 3041 3040 3040 3038 3036 3035 3036 3034 3033 3030 3029 3026 3027 3027 3026 3024 3022 3021 3018 3017 3014 3011 3007 3002 3002 2998 2995 2995 2995 2994 2993 2990
3064 3062 3060 3056 3053 3051 3049 3047 3045 3044 3041 3040 3040 3039 3039 3038 3037 3037 3036 3032 3031 3029 3027 3025 3025 3023 3023 3021 3020 3019 3018 3016 3014 3010 3008 3002 2997 2994 2992 2991 2991 2991 2991 2988 2982
3061 3058 3056 3054 3053 3048 3046 3044 3042 3041 3039 3039 3038 3037 3037 3036 3035 3035 3034 3033 3029 3026 3024 3023 3020 3020 3019 3019 3018 3016 3014 3012 3011 3009 3005 3004 3000 2992 2989 2989 2989 2989 2986 2983 2978
3057 3055 3053 3051 3048 3046 3045 3042 3040 3040 3043 3038 3039 3037 3035 3036 3035 3032 3031 3029 3026 3025 3024 3022 3019 3016 3016 3016 3015 3013 3011 3009 3007 3005 3002 2999 3001 2987 2986 2987 2987 2985 2983 2978 2971
3051 3050 3049 3047 3046 3042 3041 3039 3039 3043 3039 3036 3036 3035 3034 3032 3031 3029 3028 3025 3022 3020 3019 3017 3016 3014 3012 3012 3012 3010 3008 3005 3003 3002 3003 2995 2997 2986 2986 2987 2986 2983 2978 2971 2965
3045 3044 3044 3043 3042 3039 3038 3038 3040 3038 3037 3035 3034 3033 3030 3029 3028 3026 3026 3023 3020 3019 3017 3016 3011 3010 3010 3010 3009 3008 3006 3004 3005 3002 2998 2994 2993 2985 2985 2985 2983 2979 2974 2968 2961
3041 3040 3038 3038 3037 3035 3035 3035 3034 3032 3033 3031 3031 3030 3029 3027 3025 3025 3023 3021 3018 3016 3014 3013 3008 3008 3008 3008 3008 3006 3005 3007 3007 3003 2996 2991 2987 2984 2984 2982 2979 2973 2970 2963 2958
3036 3035 3033 3033 3032 3030 3032 3030 3028 3029 3031 3029 3028 3026 3027 3026 3025 3023 3021 3019 3016 3015 3016 3012 3007 3005 3005 3005 3007 3004 3004 3006 3005 3001 2999 2987 2984 2984 2982 2981 2977 2973 2968 2962 2955
3030 3029 3028 3027 3027 3027 3028 3027 3027 3026 3026 3027 3027 3025 3024 3025 3023 3022 3019 3015 3013 3013 3012 3010 3006 3003 3002 3003 3002 3002 3004 3005 3003 3003 2999 2985 2983 2982 2982 2979 2975 2971 2965 2959 2953
3024 3023 3023 3023 3023 3022 3023 3024 3022 3022 3023 3025 3024 3023 3023 3021 3020 3019 3016 3014 3012 3012 3010 3008 3006 3003 3001 3000 2998 3000 3001 3002 3002 3001 3001 2998 2983 2982 2980 2977 2972 2967 2962 2956 2950
3017 3018 3017 3018 3020 3018 3018 3018 3019 3018 3019 3020 3021 3020 3020 3019 3017 3016 3014 3013 3011 3010 3007 3006 3003 2998 2998 2997 2996 2998 2998 2999 3000 2999 2997 2995 2985 2981 2978 2975 2970 2966 2963 2956 2950
3009 3011 3013 3014 3013 3013 3015 3015 3014 3015 3015 3017 3018 3017 3017 3017 3015 3013 3012 3010 3009 3007 3006 3003 2999 2997 2994 2995 2994 2994 2995 2995 2996 2996 2992 2993 2983 2980 2976 2973 2967 2967 2963 2958 2952
3004 3005 3008 3008 3007 3010 3010 3010 3011 3011 3013 3014 3015 3015 3015 3013 3012 3011 3009 3007 3005 3003 3001 2999 2995 2995 2993 2992 2992 2992 2992 2992 2993 2992 2987 2983 2981 2980 2975 2971 2967 2966 2963 2960 2953
2996 2998 3001 3003 3002 3004 3007 3006 3008 3009 3010 3011 3013 3013 3013 3010 3008 3006 3005 3003 3000 2999 2997 2996 2992 2991 2989 2988 2988 2987 2987 2987 2987 2988 2986 2981 2979 2977 2974 2970 2967 2965 2963 2961 2956
2989 2993 2996 3000 2999 3001 3002 3003 3005 3006 3008 3009 3010 3009 3009 3007 3007 3004 3002 2999 2997 2995 2994 2992 2990 2987 2984 2983 2983 2981 2980 2981 2982 2981 2979 2979 2976 2974 2972 2969 2968 2965 2964 2960 2956
2981 2987 2992 2995 2996 2998 2999 3001 3002 3003 3005 3005 3006 3005 3005 3004 3002 3000 2997 2994 2993 2992 2991 2990 2988 2987 2982 2981 2980 2978 2973 2975 2975 2975 2977 2976 2977 2973 2971 2969 2967 2966 2964 2962 2955